Weather History for KRCX - February, 2014

Change the Weather History Date:

Wednesday, February 26, 2014

  Actual Average (KRPD) Record (KRPD)
Temperature  
Mean Temperature -2 °F -  
Max Temperature 12 °F 28 °F 44 °F (1998)
Min Temperature -15 °F 12 °F -14 °F (2014)
Degree Days  
Heating Degree Days 66    
Moisture  
Dew Point -9 °F    
Average Humidity 67    
Maximum Humidity 86    
Minimum Humidity 52    
Precipitation  
Precipitation 0.00 in - - ()
Sea Level Pressure  
Sea Level Pressure 29.80 in    
Wind  
Wind Speed 11 mph (WSW)    
Max Wind Speed 23 mph    
Max Gust Speed 32 mph    
Visibility 8 miles    
Events Snow    
Averages and records for this station are not official NWS values.
T = Trace of Precipitation, MM = Missing Value Source: NWS Daily Summary

Daily Weather History Graph

Daily Weather History Graph

Search for Another Location

Airport or City:

Trip Planner

Search our weather history database for the weather conditions in past years. The results will help you decide how hot, cold, wet, or windy it might be!

Date:

Astronomy

Feb. 26, 2014 Rise Set
Actual Time 6:47 AM CST 5:46 PM CST
Civil Twilight 6:17 AM CST 6:16 PM CST
Nautical Twilight 5:43 AM CST 6:51 PM CST
Astronomical Twilight 5:09 AM CST 7:25 PM CST
Moon 4:40 AM CST (2/26) 2:56 PM CST (2/26)
Length of Visible Light 11h 59m
Length of Day
10h 59m
Waning Crescent, 10% of the Moon is Illuminated
Feb 26
Waning Crescent
Mar 1
New
Mar 8
First Quarter
Mar 16
Full
Mar 23
Last Quarter

Hourly Weather History & Observations

Time (CST) Temp. Windchill Dew Point Humidity Pressure Visibility Wind Dir Wind Speed Gust Speed Precip Events Conditions
12:15 AM -4.9 °F -21.3 °F -14.8 °F 62% 30.17 in 10.0 mi WNW 9.2 mph - N/A   Clear
12:35 AM -6.2 °F -21.7 °F -15.7 °F 63% 30.17 in 10.0 mi West 8.1 mph - N/A   Clear
12:55 AM -6.9 °F -24.8 °F -15.9 °F 65% 30.17 in 10.0 mi West 10.4 mph - N/A   Clear
1:15 AM -7.6 °F -22.1 °F -16.4 °F 65% 30.17 in 10.0 mi West 6.9 mph - N/A   Clear
1:35 AM -8.7 °F -23.4 °F -17.3 °F 66% 30.16 in 10.0 mi West 6.9 mph - N/A   Clear
1:55 AM -9.0 °F -25.2 °F -17.3 °F 67% 30.16 in 10.0 mi West 8.1 mph - N/A   Clear
2:15 AM -9.0 °F -25.2 °F -18.0 °F 65% 30.16 in 10.0 mi West 8.1 mph - N/A   Clear
2:35 AM -9.8 °F -23.1 °F -18.2 °F 66% 30.15 in 10.0 mi West 5.8 mph - N/A   Clear
2:55 AM -9.6 °F -22.9 °F -18.8 °F 64% 30.14 in 10.0 mi West 5.8 mph - N/A   Clear
3:15 AM -9.9 °F -24.9 °F -18.8 °F 65% 30.13 in 10.0 mi West 6.9 mph - N/A   Scattered Clouds
3:35 AM -9.9 °F -27.5 °F -18.9 °F 65% 30.12 in 10.0 mi West 9.2 mph - N/A   Scattered Clouds
3:55 AM -10.1 °F -25.1 °F -19.1 °F 65% 30.12 in 10.0 mi West 6.9 mph - N/A   Mostly Cloudy
4:15 AM -10.7 °F -24.2 °F -19.3 °F 66% 30.11 in 10.0 mi WSW 5.8 mph - N/A   Scattered Clouds
4:35 AM -11.0 °F -22.8 °F -20.0 °F 64% 30.10 in 10.0 mi WSW 4.6 mph - N/A   Clear
4:55 AM -11.9 °F -23.8 °F -20.4 °F 66% 30.10 in 10.0 mi SW 4.6 mph - N/A   Clear
5:15 AM -12.3 °F -26.1 °F -20.2 °F 68% 30.08 in 10.0 mi SW 5.8 mph - N/A   Scattered Clouds
5:35 AM -12.8 °F -28.4 °F -20.6 °F 68% 30.07 in 10.0 mi SSW 6.9 mph - N/A   Clear
5:55 AM -13.7 °F -29.5 °F -20.9 °F 70% 30.05 in 10.0 mi SSW 6.9 mph - N/A   Scattered Clouds
6:15 AM -14.4 °F -28.7 °F -21.3 °F 71% 30.03 in 10.0 mi South 5.8 mph - N/A   Mostly Cloudy
6:35 AM -15.0 °F -31.0 °F -21.5 °F 73% 30.01 in 10.0 mi SSW 6.9 mph - N/A   Mostly Cloudy
6:55 AM -14.1 °F -29.9 °F -20.4 °F 73% 30.00 in 10.0 mi SSW 6.9 mph - N/A   Overcast
7:15 AM -13.4 °F -30.4 °F -19.3 °F 75% 29.99 in 10.0 mi SW 8.1 mph - N/A   Mostly Cloudy
7:35 AM -13.2 °F -30.2 °F -18.9 °F 75% 29.98 in 10.0 mi SW 8.1 mph - N/A   Mostly Cloudy
7:55 AM -12.3 °F -30.4 °F -18.4 °F 74% 29.97 in 10.0 mi SSW 9.2 mph - N/A   Mostly Cloudy
8:15 AM -11.4 °F -31.4 °F -17.5 °F 74% 29.95 in 10.0 mi SSW 11.5 mph - N/A   Overcast
8:35 AM -10.1 °F -27.7 °F -15.9 °F 76% 29.93 in 10.0 mi SSW 9.2 mph - N/A   Overcast
8:55 AM -8.5 °F -26.8 °F -14.8 °F 74% 29.91 in 10.0 mi SW 10.4 mph - N/A   Overcast
9:15 AM -6.7 °F -24.5 °F -13.9 °F 71% 29.89 in 10.0 mi SSW 10.4 mph - N/A   Overcast
9:35 AM -4.9 °F -23.2 °F -13.0 °F 68% 29.88 in 10.0 mi SW 11.5 mph 18.4 mph N/A   Overcast
9:55 AM -4.0 °F -22.1 °F -12.6 °F 66% 29.86 in 10.0 mi SW 11.5 mph 23.0 mph N/A   Overcast
10:15 AM -3.1 °F -22.6 °F -12.1 °F 65% 29.84 in 10.0 mi SW 13.8 mph 20.7 mph N/A   Overcast
10:35 AM -2.2 °F -20.7 °F -11.7 °F 64% 29.81 in 10.0 mi SSW 12.7 mph - N/A   Overcast
10:55 AM -0.8 °F -21.0 °F -11.0 °F 62% 29.80 in 10.0 mi SSW 16.1 mph - N/A   Overcast
11:15 AM 0.5 °F -18.7 °F -9.8 °F 62% 29.78 in 10.0 mi SW 15.0 mph 20.7 mph N/A   Overcast
11:35 AM 1.9 °F -17.5 °F -9.0 °F 60% 29.76 in 10.0 mi SSW 16.1 mph 19.6 mph N/A   Overcast
11:55 AM 3.6 °F -16.0 °F -8.0 °F 59% 29.73 in 10.0 mi SSW 17.3 mph 21.9 mph N/A   Overcast
12:15 PM 5.0 °F -14.7 °F -6.7 °F 59% 29.71 in 10.0 mi SSW 18.4 mph 23.0 mph N/A   Overcast
12:35 PM 5.0 °F -14.2 °F -6.2 °F 60% 29.67 in 10.0 mi SSW 17.3 mph 26.5 mph N/A   Overcast
12:55 PM 5.7 °F -15.3 °F -5.1 °F 61% 29.63 in 10.0 mi SSW 21.9 mph 27.6 mph N/A   Overcast
1:15 PM 6.4 °F -14.3 °F -4.0 °F 62% 29.60 in 7.0 mi SSW 21.9 mph 26.5 mph N/A   Mostly Cloudy
1:35 PM 7.7 °F -9.5 °F -3.6 °F 60% 29.58 in 10.0 mi SW 15.0 mph 21.9 mph N/A   Overcast
1:55 PM 8.6 °F -8.9 °F -2.7 °F 60% 29.57 in 10.0 mi SSW 16.1 mph 23.0 mph N/A   Mostly Cloudy
2:15 PM 10.2 °F -7.9 °F -1.3 °F 60% 29.55 in 10.0 mi SW 18.4 mph 25.3 mph N/A   Mostly Cloudy
2:35 PM 11.1 °F -6.2 °F -0.6 °F 59% 29.54 in 7.0 mi WSW 17.3 mph 27.6 mph N/A   Mostly Cloudy
3:00 PM 11.1 °F -7.7 °F 0.3 °F 62% 29.54 in 7.0 mi WSW 20.7 mph 28.8 mph N/A   Mostly Cloudy
3:15 PM 10.4 °F -7.2 °F 0.9 °F 65% 29.54 in 3.0 mi WSW 17.3 mph 28.8 mph N/A   Haze
3:35 PM 11.1 °F -5.1 °F 2.1 °F 67% 29.53 in 5.0 mi WSW 15.0 mph 21.9 mph N/A   Haze
3:55 PM 10.9 °F -5.4 °F 4.1 °F 74% 29.52 in 2.5 mi SW 15.0 mph - N/A   Haze
4:15 PM 10.9 °F -2.6 °F 5.4 °F 78% 29.52 in 1.5 mi WSW 10.4 mph - N/A   Haze
4:35 PM 10.9 °F -0.8 °F 6.3 °F 81% 29.51 in 1.2 mi WSW 8.1 mph - N/A Snow Light Snow
4:55 PM 11.1 °F -2.4 °F 6.8 °F 83% 29.50 in 1.5 mi SW 10.4 mph - N/A Snow Light Snow
5:15 PM 11.3 °F -0.4 °F 7.5 °F 85% 29.50 in 1.8 mi WSW 8.1 mph - N/A Snow Light Snow
5:35 PM 12.0 °F -0.4 °F 8.1 °F 84% 29.50 in 1.5 mi WSW 9.2 mph - N/A Snow Light Snow
5:55 PM 11.8 °F -0.7 °F 8.4 °F 86% 29.50 in 1.2 mi West 9.2 mph - N/A Snow Light Snow
6:15 PM 11.3 °F -3.6 °F 7.3 °F 84% 29.51 in 10.0 mi West 12.7 mph - N/A   Overcast
6:35 PM 11.7 °F -4.4 °F 5.0 °F 75% 29.51 in 5.0 mi West 15.0 mph 23.0 mph N/A   Haze
6:55 PM 11.3 °F -6.0 °F 6.8 °F 82% 29.53 in 1.2 mi WNW 17.3 mph 24.2 mph N/A Snow Light Snow
7:15 PM 10.4 °F -9.5 °F 3.6 °F 74% 29.53 in 4.0 mi WNW 23.0 mph - N/A   Haze
7:35 PM 9.5 °F -8.3 °F -0.8 °F 63% 29.55 in 4.0 mi WNW 17.3 mph 31.1 mph N/A   Haze
7:55 PM 9.0 °F -10.5 °F 0.5 °F 69% 29.57 in 4.0 mi WNW 20.7 mph 27.6 mph N/A   Haze
8:15 PM 7.3 °F -13.5 °F -2.2 °F 65% 29.57 in 4.0 mi WNW 23.0 mph 31.1 mph N/A   Haze
8:35 PM 6.8 °F -12.9 °F -3.3 °F 63% 29.58 in 5.0 mi WNW 19.6 mph 27.6 mph N/A   Haze
8:55 PM 6.3 °F -13.6 °F -4.7 °F 61% 29.60 in 4.0 mi WNW 19.6 mph 31.1 mph N/A   Haze
9:15 PM 6.3 °F -15.0 °F -3.5 °F 64% 29.61 in 5.0 mi NW 23.0 mph 28.8 mph N/A Snow Light Snow
9:35 PM 5.4 °F -15.7 °F -1.3 °F 74% 29.62 in 2.0 mi NW 21.9 mph 31.1 mph N/A Snow Light Snow
9:55 PM 4.5 °F -12.3 °F -1.3 °F 77% 29.64 in 1.5 mi NNW 12.7 mph 28.8 mph N/A Snow Light Snow
10:15 PM 2.1 °F -20.5 °F -4.9 °F 72% 29.67 in 1.8 mi NNW 23.0 mph 32.2 mph N/A   Haze
10:35 PM 0.9 °F -19.5 °F -12.8 °F 53% 29.68 in 5.0 mi NW 17.3 mph 27.6 mph N/A   Haze
10:55 PM 0.3 °F -21.9 °F -13.4 °F 53% 29.70 in 4.0 mi NW 20.7 mph 28.8 mph N/A   Haze
11:15 PM -0.9 °F -23.5 °F -14.6 °F 52% 29.71 in 10.0 mi NW 20.7 mph 25.3 mph N/A   Clear
11:35 PM -1.7 °F -22.8 °F -15.0 °F 53% 29.72 in 10.0 mi NW 17.3 mph 23.0 mph N/A   Clear
11:55 PM -2.7 °F -26.9 °F -15.0 °F 56% 29.74 in 5.0 mi NW 23.0 mph 28.8 mph N/A   Haze